,,Stat6,,Stat2,,Stat8,,Stat9,,Stat10,,Wind1,,Wind1,
time,status,PA1M_AVG,status,PR1M_SUM,status,RH1M_AVG,status,SR1M_AVG,status,TA1M_AVG,status,W1dAve1m,status,W1sAve1m,
2008-03-23, 00:00:00,VALID,917.038,VALID,0,VALID,100,VALID,-0.0509425,VALID,18.1323,VALID,132,VALID,0,
2008-03-23, 00:01:00,VALID,917.041,VALID,0,VALID,100,VALID,-0.0509425,VALID,18.1453,VALID,132,VALID,0,
2008-03-23, 00:02:00,VALID,917.039,VALID,0,VALID,100,VALID,-0.0169808,VALID,18.1483,VALID,132,VALID,0,
2008-03-23, 00:03:00,VALID,917.033,VALID,0,VALID,100,VALID,-0.0169808,VALID,18.155,VALID,132,VALID,0,
2008-03-23, 00:04:00,VALID,917.026,VALID,0,VALID,100,VALID,-0.0169808,VALID,18.1515,VALID,132,VALID,0,
2008-03-23, 00:05:00,VALID,917.014,VALID,0,VALID,100,VALID,-0.0849042,VALID,18.168,VALID,132,VALID,0,
2008-03-23, 00:06:00,VALID,917.002,VALID,0,VALID,100,VALID,-0.0849042,VALID,18.1877,VALID,132,VALID,0,
2008-03-23, 00:07:00,VALID,916.989,VALID,0,VALID,100,VALID,-0.0849042,VALID,18.2071,VALID,132,VALID,0,
2008-03-23, 00:08:00,VALID,916.98,VALID,0,VALID,100,VALID,-0.0509425,VALID,18.2169,VALID,132,VALID,0,
2008-03-23, 00:09:00,VALID,916.975,VALID,0,VALID,100,VALID,-0.0679233,VALID,18.2393,VALID,128,VALID,0,
2008-03-23, 00:10:00,VALID,916.962,VALID,0,VALID,100,VALID,-0.0339617,VALID,18.2458,VALID,40,VALID,0.238917,
2008-03-23, 00:11:00,VALID,916.949,VALID,0,VALID,100,VALID,-0.101885,VALID,18.259,VALID,326,VALID,0.00508721,
2008-03-23, 00:12:00,VALID,916.948,VALID,0,VALID,100,VALID,-0.0509425,VALID,18.2653,VALID,326,VALID,0,
2008-03-23, 00:13:00,VALID,916.938,VALID,0,VALID,100,VALID,-0.0339617,VALID,18.275,VALID,326,VALID,0,
2008-03-23, 00:14:00,VALID,916.934,VALID,0,VALID,100,VALID,-0.0169808,VALID,18.275,VALID,326,VALID,0,
2008-03-23, 00:15:00,VALID,916.909,VALID,0,VALID,100,VALID,-0.0679233,VALID,18.2718,VALID,326,VALID,0,
2008-03-23, 00:16:00,VALID,916.904,VALID,0,VALID,100,VALID,-0.0339617,VALID,18.2785,VALID,326,VALID,0,
2008-03-23, 00:17:00,VALID,916.909,VALID,0,VALID,100,VALID,-0.0169808,VALID,18.265,VALID,326,VALID,0,
2008-03-23, 00:18:00,VALID,916.893,VALID,0,VALID,100,VALID,-0.0339617,VALID,18.2681,VALID,326,VALID,0,
2008-03-23, 00:19:00,VALID,916.88,VALID,0,VALID,100,VALID,0.0679233,VALID,18.2736,VALID,326,VALID,0,
2008-03-23, 00:20:00,VALID,916.865,VALID,0,VALID,100,VALID,0.0849042,VALID,18.2706,VALID,326,VALID,0,
2008-03-23, 00:21:00,VALID,916.865,VALID,0,VALID,100,VALID,0.0849042,VALID,18.2669,VALID,326,VALID,0,
2008-03-23, 00:22:00,VALID,916.842,VALID,0,VALID,100,VALID,0.0849042,VALID,18.2639,VALID,326,VALID,0,
2008-03-23, 00:23:00,VALID,916.836,VALID,0,VALID,100,VALID,0.0679233,VALID,18.2674,VALID,326,VALID,0,
2008-03-23, 00:24:00,VALID,916.84,VALID,0,VALID,100,VALID,0.0169808,VALID,18.2542,VALID,326,VALID,0,
2008-03-23, 00:25:00,VALID,916.839,VALID,0,VALID,100,VALID,0.0679233,VALID,18.244,VALID,326,VALID,0,
2008-03-23, 00:26:00,VALID,916.828,VALID,0,VALID,100,VALID,0.0169808,VALID,18.2474,VALID,326,VALID,0,
2008-03-23, 00:27:00,VALID,916.822,VALID,0,VALID,100,VALID,0.0849042,VALID,18.238,VALID,326,VALID,0,
2008-03-23, 00:28:00,VALID,916.821,VALID,0,VALID,100,VALID,0.0679233,VALID,18.2479,VALID,326,VALID,0,
2008-03-23, 00:29:00,VALID,916.82,VALID,0,VALID,100,VALID,0.0849042,VALID,18.2479,VALID,326,VALID,0,
2008-03-23, 00:30:00,VALID,916.814,VALID,0,VALID,100,VALID,0.0849042,VALID,18.2502,VALID,326,VALID,0,
2008-03-23, 00:31:00,VALID,916.817,VALID,0,VALID,100,VALID,0.0509425,VALID,18.26,VALID,326,VALID,0,
2008-03-23, 00:32:00,VALID,916.818,VALID,0,VALID,100,VALID,0.0679233,VALID,18.2607,VALID,326,VALID,0,
2008-03-23, 00:33:00,VALID,916.806,VALID,0,VALID,100,VALID,0.0169808,VALID,18.2616,VALID,326,VALID,0,
2008-03-23, 00:34:00,VALID,916.79,VALID,0,VALID,100,VALID,-0.152827,VALID,18.2604,VALID,326,VALID,0,
2008-03-23, 00:35:00,VALID,916.77,VALID,0,VALID,100,VALID,-0.152827,VALID,18.2734,VALID,326,VALID,0,
2008-03-23, 00:36:00,VALID,916.759,VALID,0,VALID,100,VALID,-0.186789,VALID,18.2669,VALID,326,VALID,0,
2008-03-23, 00:37:00,VALID,916.749,VALID,0,VALID,100,VALID,-0.186789,VALID,18.2697,VALID,326,VALID,0,
2008-03-23, 00:38:00,VALID,916.738,VALID,0,VALID,100,VALID,-0.169808,VALID,18.2667,VALID,326,VALID,0,
2008-03-23, 00:39:00,VALID,916.741,VALID,0,VALID,100,VALID,-0.186789,VALID,18.2704,VALID,326,VALID,0,
2008-03-23, 00:40:00,VALID,916.736,VALID,0,VALID,100,VALID,-0.186789,VALID,18.2738,VALID,326,VALID,0,
2008-03-23, 00:41:00,VALID,916.738,VALID,0,VALID,100,VALID,-0.169808,VALID,18.2764,VALID,326,VALID,0,
2008-03-23, 00:42:00,VALID,916.744,VALID,0,VALID,100,VALID,-0.152827,VALID,18.2926,VALID,326,VALID,0,
2008-03-23, 00:43:00,VALID,916.713,VALID,0,VALID,100,VALID,-0.152827,VALID,18.2993,INVALID,360,VALID,0,
2008-03-23, 00:44:00,VALID,916.703,VALID,0,VALID,100,VALID,-0.169808,VALID,18.2928,VALID,326,VALID,0,
2008-03-23, 00:45:00,VALID,916.688,VALID,0,VALID,100,VALID,-0.152827,VALID,18.2699,VALID,326,VALID,0,
2008-03-23, 00:46:00,VALID,916.674,VALID,0,VALID,100,VALID,-0.135847,VALID,18.2537,VALID,326,VALID,0,
2008-03-23, 00:47:00,VALID,916.662,VALID,0,VALID,100,VALID,-0.169808,VALID,18.2604,VALID,326,VALID,0,
2008-03-23, 00:48:00,VALID,916.644,VALID,0,VALID,100,VALID,-0.152827,VALID,18.2535,VALID,326,VALID,0,
2008-03-23, 00:49:00,VALID,916.644,VALID,0,VALID,100,VALID,-0.0679233,VALID,18.2456,VALID,326,VALID,0,
2008-03-23, 00:50:00,VALID,916.636,VALID,0,VALID,100,VALID,-0.0509425,VALID,18.2523,VALID,326,VALID,0,
2008-03-23, 00:51:00,VALID,916.628,VALID,0,VALID,100,VALID,-0.0849042,VALID,18.2623,VALID,326,VALID,0,
2008-03-23, 00:52:00,VALID,916.624,VALID,0,VALID,100,VALID,-0.0509425,VALID,18.2523,VALID,326,VALID,0,
2008-03-23, 00:53:00,VALID,916.623,VALID,0,VALID,100,VALID,-0.0339617,VALID,18.2586,VALID,326,VALID,0,
2008-03-23, 00:54:00,VALID,916.621,VALID,0,VALID,100,VALID,-0.0679233,VALID,18.2817,VALID,326,VALID,0,
2008-03-23, 00:55:00,VALID,916.618,VALID,0,VALID,100,VALID,-0.0509425,VALID,18.285,VALID,326,VALID,0,
2008-03-23, 00:56:00,VALID,916.617,VALID,0,VALID,100,VALID,-0.118866,VALID,18.2558,VALID,12,VALID,0,
2008-03-23, 00:57:00,VALID,916.622,VALID,0,VALID,100,VALID,-0.0849042,VALID,18.2199,VALID,12,VALID,0,
2008-03-23, 00:58:00,VALID,916.606,VALID,0,VALID,100,VALID,-0.0679233,VALID,18.2006,VALID,12,VALID,0,
2008-03-23, 00:59:00,VALID,916.603,VALID,0,VALID,100,VALID,-0.101885,VALID,18.2037,VALID,40,VALID,0,
2008-03-23, 01:00:00,VALID,916.59,VALID,0,VALID,100,VALID,-0.101885,VALID,18.1974,VALID,73,VALID,0,
2008-03-23, 01:01:00,VALID,916.586,VALID,0,VALID,100,VALID,-0.0679233,VALID,18.1552,VALID,78,VALID,0,
2008-03-23, 01:02:00,VALID,916.574,VALID,0,VALID,100,VALID,-0.0509425,VALID,18.1228,VALID,78,VALID,0,
2008-03-23, 01:03:00,VALID,916.566,VALID,0,VALID,100,VALID,-0.0849042,VALID,18.1034,VALID,70,VALID,0,
2008-03-23, 01:04:00,VALID,916.563,VALID,0,VALID,100,VALID,-0.0679233,VALID,18.0871,VALID,72,VALID,0,
2008-03-23, 01:05:00,VALID,916.56,VALID,0,VALID,100,VALID,-0.0339617,VALID,18.0837,VALID,76,VALID,0,
2008-03-23, 01:06:00,VALID,916.562,VALID,0,VALID,100,VALID,-0.0509425,VALID,18.077,VALID,76,VALID,0,
2008-03-23, 01:07:00,VALID,916.559,VALID,0,VALID,100,VALID,-0.0509425,VALID,18.0739,VALID,79,VALID,0.348899,
2008-03-23, 01:08:00,VALID,916.54,VALID,0,VALID,100,VALID,-0.0849042,VALID,18.0839,VALID,78,VALID,0.920313,
2008-03-23, 01:09:00,VALID,916.523,VALID,0,VALID,100,VALID,-0.0679233,VALID,18.0677,VALID,83,VALID,0.862305,
2008-03-23, 01:10:00,VALID,916.497,VALID,0,VALID,100,VALID,-0.0169808,VALID,18.0642,VALID,101,VALID,0.858854,
2008-03-23, 01:11:00,VALID,916.479,VALID,0,VALID,100,VALID,-0.101885,VALID,18.0677,VALID,101,VALID,0.862909,
2008-03-23, 01:12:00,VALID,916.476,VALID,0,VALID,100,VALID,-0.0849042,VALID,18.0677,VALID,104,VALID,0.899023,
2008-03-23, 01:13:00,VALID,916.455,VALID,0,VALID,100,VALID,-0.0679233,VALID,18.0612,VALID,104,VALID,0.798781,
2008-03-23, 01:14:00,VALID,916.437,VALID,0,VALID,100,VALID,-0.118866,VALID,18.0612,VALID,106,VALID,0.746484,
2008-03-23, 01:15:00,VALID,916.422,VALID,0,VALID,100,VALID,-0.101885,VALID,18.0644,VALID,106,VALID,0.581641,
2008-03-23, 01:16:00,VALID,916.413,VALID,0,VALID,100,VALID,-0.0849042,VALID,18.0642,VALID,106,VALID,0.623476,
2008-03-23, 01:17:00,VALID,916.417,VALID,0,VALID,100,VALID,-0.101885,VALID,18.0515,VALID,106,VALID,0.110677,
2008-03-23, 01:18:00,VALID,916.405,VALID,0,VALID,100,VALID,-0.0679233,VALID,18.0475,VALID,106,VALID,0.00133384,
2008-03-23, 01:19:00,VALID,916.392,VALID,0,VALID,100,VALID,0.0169808,VALID,18.0698,VALID,107,VALID,0,
2008-03-23, 01:20:00,VALID,916.391,VALID,0,VALID,100,VALID,0,VALID,18.0756,VALID,107,VALID,0,
2008-03-23, 01:21:00,VALID,916.377,VALID,0,VALID,100,VALID,0.0169808,VALID,18.0888,VALID,107,VALID,0,
2008-03-23, 01:22:00,VALID,916.364,VALID,0,VALID,100,VALID,0.0169808,VALID,18.0987,VALID,106,VALID,0,
2008-03-23, 01:23:00,VALID,916.347,VALID,0,VALID,100,VALID,0,VALID,18.1117,VALID,107,VALID,0,
2008-03-23, 01:24:00,VALID,916.338,VALID,0,VALID,100,VALID,0.0509425,VALID,18.1045,VALID,107,VALID,0,
2008-03-23, 01:25:00,VALID,916.325,VALID,0,VALID,100,VALID,0.0339617,VALID,18.1242,VALID,117,VALID,0.12609,
2008-03-23, 01:26:00,VALID,916.306,VALID,0,VALID,100,VALID,0.0169808,VALID,18.1309,VALID,147,VALID,0.271723,
2008-03-23, 01:27:00,VALID,916.305,VALID,0,VALID,100,VALID,0.0339617,VALID,18.1374,VALID,163,VALID,0.268973,
2008-03-23, 01:28:00,VALID,916.296,VALID,0,VALID,100,VALID,0,VALID,18.1409,VALID,166,VALID,0,
2008-03-23, 01:29:00,VALID,916.293,VALID,0,VALID,100,VALID,-0.0169808,VALID,18.1441,VALID,174,VALID,0,
2008-03-23, 01:30:00,VALID,916.286,VALID,0,VALID,100,VALID,0,VALID,18.1541,VALID,174,VALID,0,
2008-03-23, 01:31:00,VALID,916.26,VALID,0,VALID,100,VALID,0,VALID,18.1571,VALID,174,VALID,0,
2008-03-23, 01:32:00,VALID,916.245,VALID,0,VALID,100,VALID,0.0169808,VALID,18.1541,VALID,162,VALID,0,
2008-03-23, 01:33:00,VALID,916.241,VALID,0,VALID,100,VALID,-0.0169808,VALID,18.1411,VALID,161,VALID,0,
2008-03-23, 01:34:00,VALID,916.221,VALID,0,VALID,100,VALID,-0.0849042,VALID,18.149,VALID,159,VALID,0,
2008-03-23, 01:35:00,VALID,916.212,VALID,0,VALID,100,VALID,-0.101885,VALID,18.1457,VALID,156,VALID,0,
2008-03-23, 01:36:00,VALID,916.202,VALID,0,VALID,100,VALID,-0.0849042,VALID,18.1388,VALID,152,VALID,0,
2008-03-23, 01:37:00,VALID,916.191,VALID,0,VALID,100,VALID,-0.0849042,VALID,18.1288,VALID,147,VALID,0,
2008-03-23, 01:38:00,VALID,916.179,VALID,0,VALID,100,VALID,-0.0679233,VALID,18.1191,VALID,145,VALID,0,
2008-03-23, 01:39:00,VALID,916.182,VALID,0,VALID,100,VALID,-0.0679233,VALID,18.1286,VALID,145,VALID,0,
2008-03-23, 01:40:00,VALID,916.179,VALID,0,VALID,100,VALID,-0.101885,VALID,18.1321,VALID,145,VALID,0,
2008-03-23, 01:41:00,VALID,916.176,VALID,0,VALID,100,VALID,-0.0339617,VALID,18.1416,VALID,145,VALID,0,
2008-03-23, 01:42:00,VALID,916.159,VALID,0,VALID,100,VALID,-0.0849042,VALID,18.1485,VALID,153,VALID,0.543056,
2008-03-23, 01:43:00,VALID,916.162,VALID,0,VALID,100,VALID,-0.0509425,VALID,18.1583,VALID,167,VALID,0.668229,
2008-03-23, 01:44:00,VALID,916.138,VALID,0,VALID,100,VALID,-0.101885,VALID,18.1483,VALID,165,VALID,0.00576637,
2008-03-23, 01:45:00,VALID,916.133,VALID,0,VALID,100,VALID,-0.0849042,VALID,18.158,VALID,161,VALID,0.000177557,
2008-03-23, 01:46:00,VALID,916.115,VALID,0,VALID,100,VALID,-0.0849042,VALID,18.1613,VALID,158,VALID,0.653963,
2008-03-23, 01:47:00,VALID,916.122,VALID,0,VALID,100,VALID,-0.101885,VALID,18.1583,VALID,156,VALID,0.315518,
2008-03-23, 01:48:00,VALID,916.108,VALID,0,VALID,100,VALID,-0.101885,VALID,18.1615,VALID,135,VALID,0.419975,
2008-03-23, 01:49:00,VALID,916.094,VALID,0,VALID,100,VALID,-0.0339617,VALID,18.1615,VALID,143,VALID,0.276563,
2008-03-23, 01:50:00,VALID,916.083,VALID,0,VALID,100,VALID,-0.0679233,VALID,18.1583,VALID,138,VALID,0,
2008-03-23, 01:51:00,VALID,916.085,VALID,0,VALID,100,VALID,-0.0679233,VALID,18.1552,VALID,138,VALID,0,
2008-03-23, 01:52:00,VALID,916.083,VALID,0,VALID,100,VALID,-0.0849042,VALID,18.1555,VALID,138,VALID,0,
2008-03-23, 01:53:00,VALID,916.09,VALID,0,VALID,100,VALID,-0.0339617,VALID,18.1555,VALID,151,VALID,0,
2008-03-23, 01:54:00,VALID,916.09,VALID,0,VALID,100,VALID,-0.0679233,VALID,18.155,VALID,156,VALID,0,
2008-03-23, 01:55:00,VALID,916.084,VALID,0,VALID,100,VALID,-0.0169808,VALID,18.1613,VALID,155,VALID,0,
2008-03-23, 01:56:00,VALID,916.075,VALID,0,VALID,100,VALID,-0.0679233,VALID,18.1583,VALID,155,VALID,0,
2008-03-23, 01:57:00,VALID,916.065,VALID,0,VALID,100,VALID,-0.0509425,VALID,18.1617,VALID,155,VALID,0,
2008-03-23, 01:58:00,VALID,916.041,VALID,0,VALID,100,VALID,-0.0849042,VALID,18.1684,VALID,155,VALID,0,
2008-03-23, 01:59:00,VALID,916.041,VALID,0,VALID,100,VALID,-0.0849042,VALID,18.168,VALID,155,VALID,0,
2008-03-23, 02:00:00,VALID,916.032,VALID,0,VALID,100,VALID,-0.0679233,VALID,18.1747,VALID,155,VALID,0,
2008-03-23, 02:01:00,VALID,916.023,VALID,0,VALID,100,VALID,-0.0679233,VALID,18.1879,VALID,155,VALID,0,
2008-03-23, 02:02:00,VALID,916.026,VALID,0,VALID,100,VALID,-0.0509425,VALID,18.168,VALID,155,VALID,0,
2008-03-23, 02:03:00,VALID,916.023,VALID,0,VALID,100,VALID,-0.0509425,VALID,18.181,VALID,158,VALID,0,
2008-03-23, 02:04:00,VALID,916.011,VALID,0,VALID,100,VALID,0.0169808,VALID,18.1696,VALID,157,VALID,0,
2008-03-23, 02:05:00,VALID,916.009,VALID,0,VALID,100,VALID,0.0169808,VALID,18.1638,VALID,133,VALID,0,
2008-03-23, 02:06:00,VALID,916.001,VALID,0,VALID,100,VALID,0,VALID,18.1604,VALID,118,VALID,0,
2008-03-23, 02:07:00,VALID,915.986,VALID,0,VALID,100,VALID,0.0509425,VALID,18.1571,VALID,105,VALID,0,
2008-03-23, 02:08:00,VALID,915.977,VALID,0,VALID,100,VALID,0.0509425,VALID,18.1536,VALID,95,VALID,0,
2008-03-23, 02:09:00,VALID,915.949,VALID,0,VALID,100,VALID,0.0509425,VALID,18.1569,VALID,89,VALID,0,
2008-03-23, 02:10:00,VALID,915.929,VALID,0,VALID,100,VALID,0.0849042,VALID,18.1506,VALID,85,VALID,0,
2008-03-23, 02:11:00,VALID,915.906,VALID,0,VALID,100,VALID,0.0679233,VALID,18.1374,VALID,92,VALID,0,
2008-03-23, 02:12:00,VALID,915.91,VALID,0,VALID,100,VALID,0.0509425,VALID,18.1309,VALID,118,VALID,0,
2008-03-23, 02:13:00,VALID,915.898,VALID,0,VALID,100,VALID,0.0339617,VALID,18.1242,VALID,118,VALID,0,
2008-03-23, 02:14:00,VALID,915.899,VALID,0,VALID,100,VALID,0.0849042,VALID,18.1212,VALID,121,VALID,0,
2008-03-23, 02:15:00,VALID,915.885,VALID,0,VALID,100,VALID,0.101885,VALID,18.1145,VALID,123,VALID,0,
2008-03-23, 02:16:00,VALID,915.878,VALID,0,VALID,100,VALID,0.0679233,VALID,18.1115,VALID,144,VALID,0,
2008-03-23, 02:17:00,VALID,915.867,VALID,0,VALID,100,VALID,0.0509425,VALID,18.118,VALID,149,VALID,0.148619,
2008-03-23, 02:18:00,VALID,915.851,VALID,0,VALID,100,VALID,0.0169808,VALID,18.1314,VALID,142,VALID,0.800305,
2008-03-23, 02:19:00,VALID,915.828,VALID,0,VALID,100,VALID,-0.0339617,VALID,18.1325,VALID,132,VALID,0.791548,
2008-03-23, 02:20:00,VALID,915.815,VALID,0,VALID,100,VALID,-0.0679233,VALID,18.1191,VALID,128,VALID,0.714583,
2008-03-23, 02:21:00,VALID,915.813,VALID,0,VALID,100,VALID,-0.0339617,VALID,18.1258,VALID,137,VALID,0.635789,
2008-03-23, 02:22:00,VALID,915.796,VALID,0,VALID,100,VALID,-0.0509425,VALID,18.1254,VALID,144,VALID,0.345385,
2008-03-23, 02:23:00,VALID,915.79,VALID,0,VALID,100,VALID,0,VALID,18.1288,VALID,137,VALID,0.681836,
2008-03-23, 02:24:00,VALID,915.786,VALID,0,VALID,100,VALID,-0.0169808,VALID,18.1291,VALID,135,VALID,0.590021,
2008-03-23, 02:25:00,VALID,915.766,VALID,0,VALID,100,VALID,-0.0169808,VALID,18.1356,VALID,121,VALID,0.398983,
2008-03-23, 02:26:00,VALID,915.755,VALID,0,VALID,100,VALID,-0.0679233,VALID,18.1193,VALID,105,VALID,0.41495,
2008-03-23, 02:27:00,VALID,915.734,VALID,0,VALID,100,VALID,-0.0509425,VALID,18.1159,VALID,123,VALID,0.806836,
2008-03-23, 02:28:00,VALID,915.727,VALID,0,VALID,100,VALID,-0.0339617,VALID,18.0994,VALID,118,VALID,0.833394,
2008-03-23, 02:29:00,VALID,915.717,VALID,0,VALID,100,VALID,-0.0509425,VALID,18.0867,VALID,122,VALID,0.555959,
2008-03-23, 02:30:00,VALID,915.708,VALID,0,VALID,100,VALID,-0.0509425,VALID,18.0739,VALID,125,VALID,0.902439,
2008-03-23, 02:31:00,VALID,915.712,VALID,0,VALID,100,VALID,-0.0679233,VALID,18.0607,VALID,131,VALID,0.659489,
2008-03-23, 02:32:00,VALID,915.698,VALID,0,VALID,100,VALID,-0.0849042,VALID,18.0642,VALID,117,VALID,0.712652,
2008-03-23, 02:33:00,VALID,915.686,VALID,0,VALID,100,VALID,-0.0679233,VALID,18.0607,VALID,129,VALID,0.759448,
2008-03-23, 02:34:00,VALID,915.662,VALID,0,VALID,100,VALID,0.0679233,VALID,18.0628,VALID,137,VALID,0.892773,
2008-03-23, 02:35:00,VALID,915.646,VALID,0,VALID,100,VALID,0.0679233,VALID,18.0791,VALID,158,VALID,1.09691,
2008-03-23, 02:36:00,VALID,915.628,VALID,0,VALID,100,VALID,0.0339617,VALID,18.0728,VALID,156,VALID,0.994855,
2008-03-23, 02:37:00,VALID,915.621,VALID,0,VALID,100,VALID,0.0509425,VALID,18.0793,VALID,138,VALID,0.498183,
2008-03-23, 02:38:00,VALID,915.606,VALID,0,VALID,100,VALID,0.0169808,VALID,18.076,VALID,150,VALID,0.105097,
2008-03-23, 02:39:00,VALID,915.607,VALID,0,VALID,100,VALID,0.0509425,VALID,18.0758,VALID,163,VALID,0.398628,
2008-03-23, 02:40:00,VALID,915.602,VALID,0,VALID,100,VALID,0.0679233,VALID,18.0726,VALID,155,VALID,1.08403,
2008-03-23, 02:41:00,VALID,915.597,VALID,0,VALID,100,VALID,0.0169808,VALID,18.0594,VALID,143,VALID,0.867746,
2008-03-23, 02:42:00,VALID,915.601,VALID,0,VALID,100,VALID,0.0509425,VALID,18.0728,VALID,140,VALID,0.943824,
2008-03-23, 02:43:00,VALID,915.598,VALID,0,VALID,100,VALID,0.0169808,VALID,18.0728,VALID,151,VALID,0.904797,
2008-03-23, 02:44:00,VALID,915.595,VALID,0,VALID,100,VALID,0.0339617,VALID,18.0728,VALID,144,VALID,0.920351,
2008-03-23, 02:45:00,VALID,915.584,VALID,0,VALID,100,VALID,0.0169808,VALID,18.0628,VALID,147,VALID,0.964258,
2008-03-23, 02:46:00,VALID,915.581,VALID,0,VALID,100,VALID,0,VALID,18.0628,VALID,145,VALID,0.678943,
2008-03-23, 02:47:00,VALID,915.582,VALID,0,VALID,100,VALID,0.0169808,VALID,18.0663,VALID,142,VALID,0.906055,
2008-03-23, 02:48:00,VALID,915.579,VALID,0,VALID,100,VALID,-0.0169808,VALID,18.0631,VALID,140,VALID,0.786399,
2008-03-23, 02:49:00,VALID,915.572,VALID,0,VALID,100,VALID,-0.0169808,VALID,18.0702,VALID,144,VALID,1.21285,
2008-03-23, 02:50:00,VALID,915.579,VALID,0,VALID,100,VALID,-0.0339617,VALID,18.0665,VALID,144,VALID,1.0012,
2008-03-23, 02:51:00,VALID,915.58,VALID,0,VALID,100,VALID,0,VALID,18.0897,VALID,146,VALID,0.775534,
2008-03-23, 02:52:00,VALID,915.592,VALID,0,VALID,100,VALID,0.0169808,VALID,18.0763,VALID,149,VALID,0.970152,
2008-03-23, 02:53:00,VALID,915.583,VALID,0,VALID,100,VALID,-0.0339617,VALID,18.0793,VALID,139,VALID,0.768415,
2008-03-23, 02:54:00,VALID,915.577,VALID,0,VALID,100,VALID,-0.0339617,VALID,18.0934,VALID,132,VALID,0.337984,
2008-03-23, 02:55:00,VALID,915.585,VALID,0,VALID,100,VALID,-0.0169808,VALID,18.0902,VALID,133,VALID,0.572731,
2008-03-23, 02:56:00,VALID,915.591,VALID,0,VALID,100,VALID,-0.0169808,VALID,18.083,VALID,127,VALID,0.602257,
2008-03-23, 02:57:00,VALID,915.596,VALID,0,VALID,100,VALID,-0.0169808,VALID,18.0892,VALID,132,VALID,0.0397727,
2008-03-23, 02:58:00,VALID,915.594,VALID,0,VALID,100,VALID,0,VALID,18.0895,VALID,141,VALID,0.679501,
2008-03-23, 02:59:00,VALID,915.595,VALID,0,VALID,100,VALID,0,VALID,18.0895,VALID,138,VALID,0.713728,
2008-03-23, 03:00:00,VALID,915.611,VALID,0,VALID,100,VALID,-0.0169808,VALID,18.0962,VALID,129,VALID,0.577724,
2008-03-23, 03:01:00,VALID,915.627,VALID,0,VALID,100,VALID,0,VALID,18.1052,VALID,121,VALID,0.73971,
2008-03-23, 03:02:00,VALID,915.624,VALID,0,VALID,100,VALID,-0.0169808,VALID,18.1022,VALID,114,VALID,0.592052,
2008-03-23, 03:03:00,VALID,915.615,VALID,0,VALID,100,VALID,-0.0509425,VALID,18.1163,VALID,111,VALID,0.782885,
2008-03-23, 03:04:00,VALID,915.6,VALID,0,VALID,100,VALID,-0.101885,VALID,18.1103,VALID,112,VALID,0.896007,
2008-03-23, 03:05:00,VALID,915.595,VALID,0,VALID,100,VALID,-0.101885,VALID,18.1207,VALID,114,VALID,0.92569,
2008-03-23, 03:06:00,VALID,915.571,VALID,0,VALID,100,VALID,-0.169808,VALID,18.114,VALID,121,VALID,0.787464,
2008-03-23, 03:07:00,VALID,915.552,VALID,0,VALID,100,VALID,-0.118866,VALID,18.1138,VALID,132,VALID,1.04192,
2008-03-23, 03:08:00,VALID,915.544,VALID,0,VALID,100,VALID,-0.135847,VALID,18.1272,VALID,134,VALID,1.29996,
2008-03-23, 03:09:00,VALID,915.531,VALID,0,VALID,100,VALID,-0.135847,VALID,18.1337,VALID,141,VALID,1.31303,
2008-03-23, 03:10:00,VALID,915.537,VALID,0,VALID,100,VALID,-0.135847,VALID,18.1397,VALID,143,VALID,1.12361,
2008-03-23, 03:11:00,VALID,915.532,VALID,0,VALID,100,VALID,-0.152827,VALID,18.1397,VALID,145,VALID,1.02474,
2008-03-23, 03:12:00,VALID,915.53,VALID,0,VALID,100,VALID,-0.118866,VALID,18.146,VALID,140,VALID,0.86859,
2008-03-23, 03:13:00,VALID,915.519,VALID,0,VALID,100,VALID,-0.101885,VALID,18.149,VALID,146,VALID,0.860899,
2008-03-23, 03:14:00,VALID,915.501,VALID,0,VALID,100,VALID,-0.118866,VALID,18.1462,VALID,133,VALID,0.921342,
2008-03-23, 03:15:00,VALID,915.493,VALID,0,VALID,100,VALID,-0.101885,VALID,18.1365,VALID,132,VALID,0.770712,
2008-03-23, 03:16:00,VALID,915.498,VALID,0,VALID,100,VALID,-0.135847,VALID,18.133,VALID,120,VALID,0.658296,
2008-03-23, 03:17:00,VALID,915.483,VALID,0,VALID,100,VALID,-0.118866,VALID,18.1328,VALID,135,VALID,0.994186,
2008-03-23, 03:18:00,VALID,915.486,VALID,0,VALID,100,VALID,-0.0509425,VALID,18.1388,VALID,141,VALID,0.755996,
2008-03-23, 03:19:00,VALID,915.478,VALID,0,VALID,100,VALID,0,VALID,18.1346,VALID,147,VALID,0.51734,
2008-03-23, 03:20:00,VALID,915.461,VALID,0,VALID,100,VALID,0.0169808,VALID,18.1379,VALID,136,VALID,1.07402,
2008-03-23, 03:21:00,VALID,915.452,VALID,0,VALID,100,VALID,0.0169808,VALID,18.1379,VALID,145,VALID,0.896763,
2008-03-23, 03:22:00,VALID,915.429,VALID,0,VALID,100,VALID,-0.0169808,VALID,18.1349,VALID,132,VALID,0.91183,
2008-03-23, 03:23:00,VALID,915.437,VALID,0,VALID,100,VALID,0,VALID,18.1284,VALID,138,VALID,0.897711,
2008-03-23, 03:24:00,VALID,915.431,VALID,0,VALID,100,VALID,0,VALID,18.1247,VALID,138,VALID,0.891242,
2008-03-23, 03:25:00,VALID,915.431,VALID,0,VALID,100,VALID,0.0169808,VALID,18.1284,VALID,140,VALID,1.09251,
2008-03-23, 03:26:00,VALID,915.417,VALID,0,VALID,100,VALID,-0.0169808,VALID,18.1279,VALID,136,VALID,1.04976,
2008-03-23, 03:27:00,VALID,915.422,VALID,0,VALID,100,VALID,-0.0169808,VALID,18.1221,VALID,141,VALID,1.04823,
2008-03-23, 03:28:00,VALID,915.41,VALID,0,VALID,100,VALID,0,VALID,18.1247,VALID,142,VALID,0.971807,
2008-03-23, 03:29:00,VALID,915.404,VALID,0,VALID,100,VALID,0,VALID,18.1247,VALID,127,VALID,1.02035,
2008-03-23, 03:30:00,VALID,915.407,VALID,0,VALID,100,VALID,-0.0169808,VALID,18.115,VALID,134,VALID,1.17987,
2008-03-23, 03:31:00,VALID,915.385,VALID,0,VALID,100,VALID,-0.0169808,VALID,18.1284,VALID,138,VALID,1.04916,
2008-03-23, 03:32:00,VALID,915.385,VALID,0,VALID,100,VALID,-0.0169808,VALID,18.1319,VALID,135,VALID,1.08292,
2008-03-23, 03:33:00,VALID,915.377,VALID,0,VALID,100,VALID,-0.0169808,VALID,18.1418,VALID,141,VALID,0.886133,
2008-03-23, 03:34:00,VALID,915.38,VALID,0,VALID,100,VALID,0,VALID,18.1414,VALID,135,VALID,1.02162,
2008-03-23, 03:35:00,VALID,915.368,VALID,0,VALID,100,VALID,0,VALID,18.1511,VALID,141,VALID,1.06764,
2008-03-23, 03:36:00,VALID,915.37,VALID,0,VALID,100,VALID,0,VALID,18.1636,VALID,143,VALID,0.835756,
2008-03-23, 03:37:00,VALID,915.377,VALID,0,VALID,100,VALID,0,VALID,18.1837,VALID,154,VALID,0.223166,
2008-03-23, 03:38:00,VALID,915.38,VALID,0,VALID,100,VALID,0,VALID,18.1831,VALID,149,VALID,0.511628,
2008-03-23, 03:39:00,VALID,915.379,VALID,0,VALID,100,VALID,0,VALID,18.1865,VALID,141,VALID,1.13953,
2008-03-23, 03:40:00,VALID,915.377,VALID,0,VALID,100,VALID,0,VALID,18.2097,VALID,133,VALID,0.890811,
2008-03-23, 03:41:00,VALID,915.381,VALID,0,VALID,100,VALID,-0.0169808,VALID,18.2192,VALID,132,VALID,0.811012,
2008-03-23, 03:42:00,VALID,915.379,VALID,0,VALID,100,VALID,0,VALID,18.2187,VALID,130,VALID,1.11441,
2008-03-23, 03:43:00,VALID,915.375,VALID,0,VALID,100,VALID,-0.0339617,VALID,18.2222,VALID,131,VALID,1.08346,
2008-03-23, 03:44:00,VALID,915.38,VALID,0,VALID,100,VALID,-0.0339617,VALID,18.2291,VALID,131,VALID,0.750727,